Location: DaVinci Observatory
(43.1080°N, 78.6453°W)
Time: 03:32:43
(UTC-04:00)

Vanguard 2 - Visible Passes

Search period start: 22 June 2018 00:00
Search period end: 02 July 2018 00:00
Orbit: 553 x 2939 km, 32.9° (Epoch: 21 June)

Date Brightness Start Highest point End Pass type
(mag) Time Alt. Az. Time Alt. Az. Time Alt. Az.
22 Jun 9.2 04:13:39 14° SSW 04:17:02 20° S 04:20:46 10° ESE visible
23 Jun 10.1 02:28:51 12° SE 02:28:51 12° SE 02:30:02 10° SE visible
23 Jun 9.0 04:30:14 12° SW 04:34:59 24° S 04:39:00 10° ESE visible
24 Jun 9.7 02:45:22 19° SSE 02:45:22 19° SSE 02:49:04 10° ESE visible
24 Jun 8.8 04:47:07 10° SW 04:52:55 27° S 04:57:03 10° ESE visible
25 Jun 9.4 03:01:49 24° S 03:02:32 24° SSE 03:07:33 10° ESE visible
26 Jun 9.2 03:18:11 25° SSW 03:20:32 29° S 03:25:47 10° ESE visible
27 Jun 10.1 01:33:06 18° SE 01:33:06 18° SE 01:35:38 10° ESE visible
27 Jun 9.0 03:34:27 22° SW 03:38:30 33° S 03:43:50 10° ESE visible
28 Jun 9.7 01:49:14 27° SSE 01:49:14 27° SSE 01:54:07 10° ESE visible
28 Jun 8.9 03:50:34 17° SW 03:56:27 36° S 04:01:49 10° ESE visible
29 Jun10.800:03:50ESE00:03:50ESE23:43:19SSWvisible
29 Jun 9.5 02:05:09 33° S 02:05:35 33° SSE 02:12:21 10° ESE visible
29 Jun 8.8 04:06:28 11° WSW 04:14:23 37° S 04:19:42 10° ESE visible
30 Jun 10.4 00:19:26 17° ESE 00:19:26 17° ESE 00:21:44 10° ESE visible
30 Jun 9.3 02:20:44 33° SSW 02:23:35 38° S 02:30:27 10° ESE visible
30 Jun 8.8 04:24:10 10° WSW 04:32:16 36° S 04:37:30 10° SE visible
30 Jun 10.9 22:15:08 10° S 22:21:57 14° SE 22:22:14 14° SE visible
01 Jul 10.0 00:20:04 10° SSW 00:34:17 29° SE 00:40:17 10° ESE visible
01 Jul 9.2 02:35:25 24° SW 02:41:34 42° S 02:48:27 10° ESE visible
01 Jul 8.9 04:42:19 10° WSW 04:50:05 33° SSW 04:55:12 10° SE visible
01 Jul 10.7 22:29:47 10° S 22:39:53 20° SSE 22:48:04 10° ESE visible
